GFSNGP_con_mlcape_132.txt.gz
CAPE
0 0 0 0 0 0 0 0 0 0 0 0 0 0 0 0 0 0 0 5 5 2 0 0 0 0 0 0 0 0 0 0 0 0 0 0 0 0 0 0 0 3 2 2
0 0 0 0 0 0 0 0 0 0 0 0 0 0 0 0 1 10 27 23 11 7 0 0 0 0 0 0 0 0 0 0 0 0 0 0 0 0 0 0 0 1 4 3
0 0 0 0 0 0 0 0 0 0 0 0 0 0 0 0 1 18 26 14 12 9 0 0 0 0 0 0 0 0 0 0 0 0 0 0 3 6 6 0 0 4 5 4
0 0 0 0 0 0 0 0 0 0 0 0 0 0 0 0 0 3 0 0 6 0 2 0 0 0 0 0 0 0 0 0 0 0 0 3 8 24 0 0 0 2 2 4
0 0 0 0 0 0 0 0 0 0 0 0 0 0 0 0 0 0 0 0 0 2 0 0 0 0 0 0 0 0 0 0 0 0 0 0 19 11 2 1 0 5 3 2
0 0 0 0 0 0 0 0 0 0 0 0 0 0 0 0 0 0 0 0 4 5 0 0 0 0 0 0 0 0 0 0 0 0 5 5 15 27 23 0 0 18 7 4
0 0 0 0 0 0 0 0 0 0 0 0 0 0 0 0 0 0 0 0 0 0 0 0 0 0 0 0 0 0 0 0 0 7 13 15 3 3 20 23 0 6 0 2
0 0 0 0 0 0 0 0 0 0 0 0 0 0 0 0 0 0 0 16 38 67 19 0 0 0 0 0 0 0 0 0 0 0 0 3 1 8 8 1 0 0 0 0
0 0 0 0 0 0 0 0 0 0 0 0 0 0 0 13 13 11 34 107 107 128 48 0 0 0 0 0 0 0 0 0 0 0 0 14 5 0 2 15 0 0 5 0
0 0 0 0 0 0 0 0 0 0 0 0 13 12 11 9 20 74 97 183 205 212 67 7 0 0 0 0 0 0 0 0 0 0 1 8 2 0 0 0 20 33 13 0
0 0 0 0 0 0 0 0 0 0 0 0 2 5 5 26 77 124 184 283 348 295 47 0 0 0 0 0 0 0 0 0 0 0 0 29 22 18 0 0 3 19 24 8
0 0 0 0 0 0 0 0 0 0 0 0 0 7 17 28 35 100 147 350 368 185 15 0 0 0 0 0 0 0 0 0 0 0 2 7 52 69 0 0 0 0 0 0
0 0 0 0 0 0 0 0 0 0 0 0 2 5 12 4 1 0 8 284 379 175 4 2 0 0 0 0 0 0 0 0 0 0 5 1 0 0 1 16 0 0 0 0
0 0 0 0 0 0 0 0 0 0 0 0 0 0 0 2 0 0 3 58 304 81 10 0 0 0 0 0 0 0 0 0 0 0 0 0 0 0 0 27 11 7 0 0
0 0 0 0 0 0 0 0 0 0 0 0 0 0 0 4 23 60 100 293 242 21 7 0 1 0 0 0 0 0 0 0 0 0 0 0 0 0 0 22 12 9 2 0
0 0 0 0 0 0 0 0 0 0 0 5 34 56 111 130 177 230 278 270 26 14 34 6 6 4 0 0 0 0 2 0 0 0 7 1 5 0 10 25 13 4 1 0
0 0 0 0 0 0 0 0 0 0 36 126 295 356 418 492 457 416 359 119 82 59 25 5 35 0 0 0 0 0 0 0 0 0 0 0 0 12 15 5 0 0 0 0
0 0 0 0 0 0 0 0 0 10 63 145 412 536 611 660 660 507 199 93 117 106 31 4 14 0 0 0 0 0 0 0 0 0 0 0 3 7 4 0 0 0 0 0
0 0 0 0 0 0 0 0 0 8 28 87 261 404 405 314 241 177 76 39 23 30 2 1 8 2 0 0 0 0 0 0 0 0 0 0 1 0 0 0 0 0 0 0
0 0 0 0 0 0 0 0 1 18 42 91 61 52 93 75 39 28 24 10 0 1 0 0 2 0 0 0 0 0 0 0 0 0 0 0 0 0 0 0 0 0 0 0
0 1 0 0 0 0 0 0 1 0 43 65 48 27 22 3 2 0 1 0 0 0 0 0 0 0 0 0 0 0 0 0 0 0 0 0 0 0 0 0 0 0 0 0
1 0 0 0 0 0 1 1 1 0 0 0 0 0 0 0 0 0 0 0 0 0 0 0 0 0 0 0 0 0 0 0 0 0 0 0 0 0 0 0 0 0 0 0
0 7 2 4 0 1 2 0 0 15 9 2 0 0 0 0 0 0 0 0 0 0 0 0 0 0 0 0 0 0 0 0 0 0 0 0 0 0 0 0 0 0 0 0
9 0 0 0 3 3 0 2 2 2 2 4 5 3 0 0 0 0 0 0 0 0 0 0 0 0 0 0 0 0 0 0 0 0 0 0 0 0 0 0 0 0 0 0
3 4 3 4 0 0 0 0 0 0 0 0 0 0 0 0 0 0 0 0 0 0 0 0 0 0 0 0 0 0 0 0 0 0 0 0 0 0 0 0 0 0 0 0
0 5 0 0 3 0 0 0 0 0 0 0 0 0 0 0 0 0 0 0 0 0 0 0 0 0 0 0 0 0 0 0 0 0 0 0 0 0 0 0 0 0 0 0
0 0 0 0 0 0 0 0 0 0 0 0 0 0 0 0 0 0 0 0 0 0 0 0 0 0 0 0 0 0 0 0 0 0 0 0 0 0 0 0 0 0 0 0

GFSNGP_con_mlcape_135.txt.gz
CAPE
0 0 0 0 0 0 0 0 0 0 0 0 0 0 0 0 3 88 110 115 93 34 10 0 0 0 0 0 0 0 0 0 0 0 0 0 0 0 0 15 28 5 1 4
0 0 0 0 0 0 0 0 0 0 0 0 0 0 0 0 0 0 32 107 65 28 9 7 3 0 0 0 0 0 0 0 0 0 0 0 0 8 35 19 4 0 0 10
0 0 0 0 0 0 0 0 0 0 0 0 0 0 0 0 0 0 15 46 24 26 14 14 0 0 0 0 0 0 0 0 0 0 0 0 7 38 46 9 0 0 1 1
0 0 0 0 0 0 0 0 0 0 0 0 0 0 0 0 0 0 11 15 60 46 41 20 8 0 0 0 0 0 0 0 0 0 0 2 26 58 61 25 0 0 3 0
0 0 0 0 0 0 0 0 0 0 0 0 0 0 0 0 0 7 43 89 55 39 38 43 19 29 0 0 0 0 0 0 0 0 0 11 32 44 101 85 2 0 0 0
0 0 0 0 0 0 0 0 0 0 0 0 0 0 0 0 0 62 94 63 9 0 18 33 43 10 0 0 0 0 0 0 0 0 3 0 14 48 89 32 0 0 0 0
0 0 0 0 0 0 0 0 0 0 0 0 0 0 0 0 50 79 21 9 22 28 31 70 61 6 0 0 0 0 0 0 0 0 0 2 4 28 47 16 1 0 0 0
0 0 0 0 0 0 0 0 0 0 0 0 0 0 0 1 70 25 29 16 23 77 152 154 71 4 0 0 0 0 0 0 0 0 1 1 9 40 26 8 28 0 0 0
0 0 0 0 0 0 0 0 0 0 0 0 1 5 7 20 125 126 70 60 134 204 307 234 109 9 1 0 0 0 0 0 0 0 4 29 22 26 42 11 14 0 6 0
0 0 0 0 0 0 0 0 0 0 0 0 0 18 30 22 107 83 119 166 277 354 441 444 215 68 0 0 0 0 0 0 0 0 0 15 32 65 66 21 13 20 21 5
0 0 0 0 0 0 0 0 0 0 0 0 0 0 18 85 80 143 241 330 347 489 634 663 437 124 7 0 0 2 0 0 0 0 0 0 36 122 102 45 1 0 21 0
0 0 0 0 0 0 0 0 0 0 0 0 0 0 0 8 73 212 318 453 551 674 751 805 357 119 22 0 6 6 0 0 0 0 0 0 12 120 5 13 0 0 0 0
0 0 0 0 0 0 0 0 0 0 0 0 0 0 0 0 85 229 295 367 452 590 864 704 262 158 6 19 63 4 0 0 7 0 5 0 11 26 34 60 0 0 0 0
0 0 0 0 0 0 0 0 0 0 0 0 0 0 0 0 58 89 113 228 330 367 703 441 259 72 120 96 0 0 25 0 0 4 3 0 21 37 25 174 70 29 2 0
0 0 0 0 0 0 0 0 0 0 0 0 0 0 0 0 65 173 406 404 413 547 785 481 289 173 282 26 20 43 17 38 29 9 4 0 1 31 72 80 35 21 3 1
0 0 0 0 0 0 0 0 0 0 0 0 0 0 19 53 217 429 644 666 637 809 848 390 290 321 292 81 97 24 76 14 2 17 8 9 18 65 82 42 13 1 0 0
0 0 0 0 0 0 0 0 0 0 0 0 2 40 119 368 495 696 715 827 920 780 588 602 410 445 283 165 48 19 39 20 0 0 2 24 33 36 28 33 11 0 0 0
0 0 0 0 0 0 0 0 0 0 0 0 7 62 244 557 50 23 754 622 559 443 411 420 313 72 0 0 19 3 1 1 0 4 12 20 14 7 12 3 0 0 0 0
0 0 0 0 0 0 0 0 0 0 5 6 29 85 166 306 508 590 496 455 423 437 254 233 25 0 0 0 1 0 0 0 0 0 0 0 0 0 0 0 0 0 0 0
0 1 0 0 0 0 0 0 5 16 22 30 70 76 68 117 196 252 284 113 32 23 21 32 32 1 1 0 0 0 0 0 0 0 0 0 0 0 0 0 0 0 0 0
0 2 13 2 3 0 2 2 1 0 29 49 57 72 79 41 40 29 53 19 0 0 0 0 0 0 0 0 0 0 0 0 0 0 0 0 0 0 0 0 0 0 0 0
1 3 2 2 3 5 3 5 1 0 1 16 23 15 0 0 0 0 0 0 0 0 0 0 0 0 0 0 0 0 0 0 0 0 0 0 0 0 0 0 0 0 0 0
6 1 2 4 2 3 3 2 2 2 1 2 2 1 1 4 1 0 0 0 0 0 0 0 0 0 0 0 0 0 0 0 0 0 0 0 0 0 0 0 0 0 0 0
5 21 2 6 3 0 0 4 4 3 3 3 2 0 0 0 0 0 0 0 0 0 0 0 0 0 0 0 0 0 0 0 0 0 0 0 0 0 0 0 0 0 0 0
28 9 0 0 0 1 2 2 2 2 1 1 0 0 0 0 0 0 0 0 0 0 0 0 0 0 0 0 0 0 0 0 0 0 0 0 0 0 0 0 0 0 0 0
6 3 0 0 0 0 0 0 0 0 0 0 0 0 0 0 0 0 0 0 0 0 0 0 0 0 0 0 0 0 0 0 0 0 0 0 0 0 0 0 0 0 0 0
0 3 0 0 0 0 0 0 0 0 0 0 0 0 0 0 0 0 0 0 0 0 0 0 0 0 0 0 0 0 0 0 0 0 0 0 0 0 0 0 0 0 0 0

GFSNGP_con_mlcape_138.txt.gz
CAPE
0 0 0 0 0 0 0 0 0 0 0 0 0 0 0 0 62 358 713 821 749 776 765 692 511 313 127 21 5 0 0 0 0 0 0 0 0 0 18 36 57 37 20 3
0 0 0 0 0 0 0 0 0 0 0 0 0 0 0 0 0 89 484 742 824 851 829 680 452 391 90 45 33 0 0 0 0 0 0 0 2 24 74 90 55 41 4 6
0 0 0 0 0 0 0 0 0 0 0 0 0 0 0 0 0 0 0 522 759 764 673 534 440 159 58 78 3 0 0 0 0 0 0 0 31 125 124 128 167 58 3 22
1 0 0 0 0 0 0 0 0 0 0 0 0 0 0 0 0 0 21 90 569 589 511 517 343 161 200 72 16 0 0 0 0 0 0 0 60 117 117 115 119 38 11 12
0 0 0 0 0 0 0 0 0 0 0 0 0 0 0 0 30 14 46 305 507 578 569 484 201 266 301 136 71 9 0 0 0 0 0 27 91 125 106 171 79 34 27 5
0 0 0 0 0 0 0 0 0 0 0 0 0 0 0 56 80 170 287 472 701 615 326 262 333 459 343 154 63 21 0 0 0 0 9 23 149 70 55 151 47 14 11 5
0 0 0 0 0 0 0 0 0 0 0 0 0 0 65 31 362 547 596 774 649 254 34 291 691 585 324 155 69 30 0 0 0 35 31 13 214 103 161 114 23 22 26 1
0 0 0 0 0 0 0 0 0 0 0 1 22 32 52 60 209 721 772 584 254 71 256 602 827 672 488 282 138 55 0 0 0 36 45 0 116 129 36 53 39 34 34 17
0 0 0 0 0 0 0 0 0 0 0 0 0 30 80 89 235 655 636 389 213 230 602 911 926 785 636 484 314 150 40 257 0 28 95 84 192 226 85 21 36 20 4 37
0 0 0 0 0 0 0 0 0 0 0 0 0 0 0 120 210 660 682 501 394 488 734 1178 1105 930 733 604 504 238 199 331 0 130 96 113 64 83 157 53 34 26 12 40
0 0 0 0 0 0 0 0 0 0 0 0 0 0 0 0 132 397 584 651 606 770 948 1294 1406 1172 941 643 503 235 310 227 0 0 30 33 33 55 123 118 2 24 13 1
0 0 0 0 0 0 0 0 0 0 0 0 0 0 0 0 0 40 337 614 767 991 1044 1357 1561 1477 1083 734 478 405 443 30 2 2 33 40 15 36 5 5 0 0 0 0
0 0 0 0 0 0 0 0 0 0 0 0 0 0 0 0 0 0 79 371 729 1081 1232 638 159 363 1095 830 459 725 687 5 2 17 71 51 25 56 108 15 0 0 0 0
0 0 0 0 0 0 0 0 0 0 0 0 0 0 0 0 0 0 15 439 512 646 231 282 753 1041 854 570 792 884 329 55 42 30 106 91 8 32 112 233 130 83 0 0
0 0 0 0 0 0 0 0 0 0 0 0 0 0 0 0 0 0 41 366 551 598 820 1011 1150 1104 779 824 765 362 332 152 130 123 137 64 41 81 172 202 104 13 8 34
0 0 0 0 0 0 0 0 0 0 0 0 0 0 0 0 0 38 102 412 579 545 119 1159 1408 1025 1061 898 661 449 589 294 77 160 82 96 129 160 170 130 83 31 3 1
0 0 0 0 0 0 0 0 0 0 0 0 0 0 0 7 124 413 500 715 974 917 965 1327 1169 992 1062 847 600 466 384 308 25 58 69 107 183 171 122 94 31 0 0 0
0 0 0 0 0 0 0 0 0 0 0 0 1 7 17 49 408 114 213 471 546 207 462 1153 1106 1072 637 273 176 168 174 139 63 71 119 168 165 141 64 43 27 10 1 0
2 10 12 14 8 2 1 1 0 0 10 24 31 29 131 124 441 306 505 613 549 467 589 625 20 27 0 0 0 2 1 0 4 18 58 43 65 52 53 52 22 2 0 0
21 29 32 21 30 17 6 6 4 24 47 76 105 153 259 192 345 371 444 91 16 16 215 52 117 62 44 0 0 0 0 0 1 18 14 1 0 0 0 0 0 0 0 0
47 26 21 28 28 3 2 3 1 49 46 66 204 167 147 247 282 290 66 44 2 0 0 0 0 0 0 0 0 0 0 0 1 0 0 0 0 0 0 0 0 0 0 0
30 28 7 3 3 2 2 3 2 1 5 32 96 146 39 42 4 1 5 0 1 0 0 0 0 0 0 0 0 0 0 0 0 0 0 0 0 0 0 0 0 0 0 0
94 48 45 16 5 3 4 2 1 0 1 1 1 2 8 13 2 0 0 0 0 0 0 0 0 0 0 0 0 0 0 0 0 0 0 0 0 0 0 0 0 0 0 0
135 73 27 17 15 3 3 5 3 0 1 2 1 0 0 0 0 0 0 0 0 0 0 0 0 0 0 0 0 0 0 0 0 0 0 0 0 0 0 0 0 0 0 0
78 1 4 4 0 5 2 1 0 2 2 0 0 0 0 0 0 0 0 0 0 0 0 0 0 0 0 0 0 0 0 0 0 0 0 0 0 0 0 0 0 0 0 0
14 0 6 3 0 0 2 4 0 0 5 1 0 0 0 0 0 0 0 0 0 0 0 0 0 0 0 0 0 0 0 0 0 0 0 0 0 0 0 0 0 0 0 0
18 8 14 10 0 0 0 0 0 0 0 0 0 0 0 0 0 0 0 0 0 0 0 0 0 0 0 0 0 0 0 0 0 0 0 0 0 0 0 0 0 0 0 0

GFSNGP_con_mlcape_141.txt.gz
CAPE
0 0 0 0 0 0 0 0 0 0 14 48 38 0 0 0 1 105 429 844 1019 923 1139 1118 967 975 848 611 281 97 9 0 0 0 0 0 0 4 12 62 64 68 81 53
0 0 0 0 0 0 0 0 0 0 0 61 14 0 0 0 0 0 11 289 878 1172 1269 1319 1189 1148 870 516 282 54 3 0 0 0 0 0 0 7 43 85 117 69 68 32
0 0 0 0 0 0 0 0 0 0 2 14 0 0 0 0 0 0 0 0 230 1074 1422 1498 1378 1158 768 374 158 30 2 0 0 0 0 0 0 5 117 70 70 50 34 25
0 0 4 0 0 0 0 0 0 0 0 0 0 0 0 0 0 0 0 0 0 582 1361 1479 1307 927 383 194 56 25 25 13 0 0 0 0 78 116 138 71 87 86 10 25
4 5 16 31 0 0 0 0 0 0 0 0 0 0 0 0 0 0 0 36 149 408 1296 1322 1076 642 279 120 60 52 39 30 0 0 4 69 49 167 242 54 56 17 21 36
28 31 17 51 14 0 0 0 0 0 0 0 0 0 32 190 38 80 327 307 597 815 991 1075 795 412 336 224 155 113 82 20 0 0 146 67 63 143 237 69 43 58 35 44
1 12 26 77 0 0 0 4 0 0 0 0 0 32 88 47 53 248 623 651 852 985 975 864 401 404 463 313 279 208 141 37 8 16 121 76 25 188 184 61 54 66 54 39
0 0 0 34 0 0 49 68 17 0 14 10 37 16 17 20 64 98 581 811 1024 1053 792 397 570 643 626 397 354 319 232 63 89 7 36 4 101 265 172 65 67 88 57 32
148 53 152 2 82 146 102 51 0 0 0 0 0 0 0 48 141 208 488 927 991 796 423 310 794 928 900 890 697 509 352 212 390 175 39 126 217 341 264 83 92 45 26 20
57 81 3 0 0 0 0 0 0 0 0 0 0 0 0 0 31 331 617 794 797 648 360 631 960 1266 1200 1230 989 850 592 509 525 252 298 181 102 14 43 72 88 30 46 17
7 15 0 0 0 0 0 0 0 0 0 0 0 0 0 0 0 0 187 654 940 761 625 660 1188 1450 1423 1247 1090 912 751 570 553 146 0 54 50 30 23 38 6 8 2 1
16 7 3 0 0 0 0 0 0 0 0 0 0 0 0 0 0 0 0 3 470 824 973 924 1158 1359 1208 328 88 466 495 584 434 109 17 16 53 85 8 3 0 0 0 0
1 0 0 0 0 0 0 0 0 0 0 0 0 0 0 0 0 0 0 0 0 111 542 1110 585 298 60 0 0 0 100 690 307 8 2 25 57 69 39 0 0 0 0 0
0 0 0 0 0 0 0 0 0 0 0 0 0 0 0 0 0 0 0 0 0 0 921 479 194 101 32 147 528 525 667 781 230 138 0 105 83 5 38 36 177 40 0 0
0 0 0 0 0 0 0 0 0 0 0 0 0 0 0 0 0 0 0 0 0 479 528 527 271 153 307 1139 1073 862 894 435 180 187 156 111 69 24 67 46 123 82 57 4
0 0 0 0 0 0 0 0 0 0 0 0 0 0 0 0 0 0 0 6 12 116 413 158 290 568 914 1162 1017 961 681 467 404 390 192 94 108 97 39 54 99 41 1 0
0 0 0 0 0 0 0 0 0 0 0 0 0 0 0 0 0 0 18 54 220 513 291 66 6 0 0 933 888 675 523 343 31 56 258 251 146 141 53 84 28 0 0 0
0 0 0 0 0 0 3 11 0 0 0 0 0 0 1 0 2 30 108 198 321 409 397 521 299 227 167 532 456 160 55 124 1 14 77 54 145 120 71 39 55 18 9 0
3 3 9 15 13 20 22 20 25 20 13 4 1 5 7 30 55 203 134 201 411 337 510 169 72 324 156 13 42 37 4 4 10 18 2 0 3 66 31 14 9 7 0 0
12 19 17 16 15 14 21 31 19 0 0 18 26 48 65 121 155 322 393 113 74 13 188 231 252 79 2 0 0 0 0 0 0 0 11 7 11 3 0 0 0 0 0 0
42 55 11 12 3 1 1 1 5 17 154 34 69 67 102 241 341 416 301 67 2 1 2 50 45 2 0 0 0 0 0 0 0 0 0 0 1 0 0 0 0 0 0 0
82 45 12 3 4 3 2 2 5 7 3 114 149 238 296 314 147 63 38 2 0 0 0 1 0 0 0 0 0 0 0 0 0 0 0 0 0 0 0 0 0 0 0 0
59 58 41 27 8 2 2 2 3 2 3 5 19 46 38 21 30 26 1 0 0 0 0 0 0 0 0 0 0 0 0 0 0 0 0 0 0 0 0 0 0 0 0 0
121 77 33 3 3 7 5 5 1 1 0 0 0 0 1 2 0 0 0 0 0 0 0 0 0 0 0 0 0 0 0 0 0 0 0 0 0 0 0 0 0 0 0 0
109 50 1 6 0 0 1 5 0 0 0 0 0 0 0 0 0 0 0 0 0 0 0 0 0 0 0 0 0 0 0 0 0 0 0 0 0 0 0 0 0 0 0 0
3 29 3 0 0 11 7 14 8 3 5 4 1 0 0 0 0 0 0 0 0 0 0 0 0 0 0 0 0 0 0 0 0 0 0 0 0 0 0 0 0 0 0 0
43 59 22 6 0 0 2 0 0 0 0 0 0 0 0 0 0 0 0 0 0 0 0 0 0 0 0 0 0 0 0 0 0 0 0 0 0 0 0 0 0 0 0 0

GFSNGP_con_mlcape_147.txt.gz
CAPE
0 0 0 0 0 0 0 0 0 0 0 0 0 0 0 0 0 26 146 115 258 1034 1408 1124 1294 1357 1267 1144 892 504 275 150 31 0 0 0 0 0 0 16 36 91 0 0
0 0 0 0 0 0 0 0 0 0 1 11 0 2 0 0 0 0 9 57 169 1219 1700 1614 1496 1345 1061 866 628 290 169 47 0 0 0 0 0 0 2 13 220 19 0 0
0 0 0 0 0 0 0 0 0 0 32 8 0 0 0 0 0 0 0 0 24 227 1316 1594 1432 1241 985 750 478 200 78 12 0 0 0 0 0 1 34 224 162 0 0 0
0 0 0 0 0 0 2 0 4 49 80 17 0 0 0 0 0 0 0 0 0 0 567 1458 1425 1245 1052 647 348 203 141 16 0 0 1 0 0 73 111 265 155 0 0 0
0 0 0 0 0 0 17 12 29 91 35 0 0 0 0 0 0 1 0 0 0 0 0 1360 1607 1335 1127 788 611 346 208 65 5 7 0 0 28 104 104 78 25 0 39 0
0 0 0 0 3 31 18 14 95 42 6 0 0 0 70 109 197 194 199 195 107 181 357 1253 1761 1549 1197 891 559 318 176 41 11 20 17 3 91 132 79 143 113 117 0 0
0 0 0 0 5 86 78 124 175 152 35 4 28 161 176 131 163 91 196 387 352 357 269 2035 1875 1520 1226 872 548 186 56 54 98 39 28 34 196 172 155 200 275 102 0 0
122 100 90 177 26 68 283 239 216 253 210 167 177 84 80 210 208 316 355 387 625 548 664 1735 1821 1440 1106 699 280 97 98 138 55 23 28 64 214 281 340 137 186 93 127 0
77 328 313 467 506 483 224 192 209 124 25 4 1 2 9 20 16 75 113 158 278 543 1083 1639 1405 1178 1010 686 382 251 174 169 79 128 213 163 130 147 148 85 151 135 16 0
418 601 488 86 106 203 230 159 0 0 0 0 0 0 0 0 0 0 0 0 0 0 115 751 1485 1002 786 510 181 172 68 39 2 0 0 5 8 84 176 192 239 5 0 0
524 395 295 384 129 7 0 0 0 0 0 0 0 0 0 0 0 0 0 0 0 0 0 0 213 629 586 255 25 22 6 10 0 0 0 0 0 53 130 15 23 2 0 0
57 55 149 1 0 0 0 0 0 0 0 0 0 0 0 0 0 0 0 0 0 0 0 0 22 163 292 128 0 0 0 0 0 0 0 0 12 1 0 0 0 0 0 0
1 19 11 0 0 0 0 0 0 0 0 0 0 0 0 0 0 0 0 0 0 0 0 0 32 35 10 0 3 0 0 0 0 0 0 0 17 0 0 0 0 0 0 0
0 0 0 0 0 0 0 0 0 0 0 0 0 0 0 0 0 0 0 0 0 0 0 0 332 123 3 0 0 0 0 0 0 5 86 139 70 0 0 0 0 0 0 0
0 0 0 0 0 0 0 0 0 0 0 0 0 0 0 0 0 0 0 0 0 0 0 170 101 270 220 79 30 2 0 3 127 87 37 27 67 68 7 0 1 0 0 0
0 0 0 0 0 0 0 0 0 0 0 0 0 0 0 0 0 0 0 0 0 0 27 44 65 1 6 20 28 15 13 22 37 34 25 19 25 8 0 15 28 32 8 0
0 0 0 0 0 0 0 0 0 0 0 0 0 0 0 0 0 0 0 0 29 58 98 149 16 0 1 0 0 0 9 31 10 11 0 0 36 15 0 1 0 0 0 0
0 0 0 0 0 0 0 0 0 0 0 1 0 0 0 0 2 0 5 27 95 106 117 80 42 9 0 0 0 0 0 34 15 15 4 2 19 3 0 0 1 0 0 0
0 0 0 0 0 0 0 0 0 0 4 8 15 18 15 9 22 31 58 43 52 36 63 25 51 0 0 0 0 0 0 0 9 7 0 0 3 7 19 8 11 25 0 0
0 7 5 11 9 0 0 0 0 0 3 31 49 47 23 41 119 69 25 17 36 46 35 7 0 0 0 0 0 0 0 0 0 2 15 7 3 20 5 0 0 0 0 0
18 26 22 14 3 0 1 0 0 0 0 9 34 34 20 58 66 79 20 4 0 0 15 5 0 0 0 0 0 0 0 1 7 0 0 10 1 12 9 0 0 0 0 0
16 22 7 1 0 0 0 0 0 1 2 0 37 68 56 67 9 0 18 0 0 0 2 1 0 0 0 0 0 0 0 0 0 0 0 0 0 0 0 0 0 0 0 0
78 49 0 0 0 0 0 0 0 0 0 0 0 4 16 5 6 0 0 0 0 0 0 0 0 0 0 0 0 0 1 1 0 0 0 0 0 0 0 0 0 0 0 0
91 4 0 0 0 0 0 0 0 0 0 0 0 0 0 0 0 0 0 0 0 0 0 0 0 0 0 0 0 0 0 0 0 0 0 0 0 0 0 0 0 0 0 0
17 0 0 0 0 1 0 0 0 0 0 0 0 0 0 0 0 0 0 0 0 0 0 0 0 0 0 0 0 0 0 0 0 0 0 0 0 0 0 0 0 0 0 0
56 30 18 29 24 24 8 0 0 0 0 0 0 0 0 0 0 0 0 0 0 0 0 0 0 0 0 0 0 0 0 0 0 0 0 0 0 0 0 0 0 0 0 0
15 3 0 2 4 15 14 22 22 7 0 0 0 0 0 0 0 0 0 0 0 0 0 0 0 0 0 0 0 0 0 0 0 0 0 0 0 0 0 0 0 0 0 0